This demonstration page uses our WeatherBlox Daily Observations layout. Learn more.

Left ArrowRight Arrow

40.92945, -100.16068

Hourly Observations for February 27, 2016

Temp ( °F °C ) Dew Point ( °F °C ) Humidity (%) Winds ( mph kmh ) Pressure ( in mb ) Visibility ( mi km ) Precip ( " mm )
12:15 am 00:15 Clear 25 -3.8 20 -6.8 80 80 N N/A 30.18 1022 10 16.0934 N/A
12:35 am 00:35 Clear 26 -3.3 20 -6.5 79 79 N N/A 30.18 1022 10 16.0934 N/A
12:55 am 00:55 Clear 26 -3.1 20 -6.9 75 75 N N/A 30.18 1022 10 16.0934 N/A
1:15 am 01:15 Clear 27 -2.8 21 -6.2 78 78 WSW 3 6 30.18 1022 10 16.0934 N/A
1:35 am 01:35 Clear 34 1.2 21 -6 59 59 W 6 9 30.12 1020 10 16.0934 N/A
1:55 am 01:55 Clear 31 -0.4 21 -6.1 66 66 NNW 3 6 30.15 1021 10 16.0934 N/A
2:15 am 02:15 Clear 28 -2.5 21 -6.1 77 77 W 5 7 30.18 1022 10 16.0934 N/A
2:35 am 02:35 Clear 30 -1 20 -6.8 65 65 W 5 7 30.15 1021 10 16.0934 N/A
2:55 am 02:55 Clear 28 -2.2 20 -6.5 73 73 N N/A 30.18 1022 10 16.0934 N/A
3:15 am 03:15 Clear 29 -1.7 20 -6.5 70 70 W 5 7 30.18 1022 10 16.0934 N/A
3:35 am 03:35 Clear 31 -0.5 20 -6.4 65 65 WNW 7 11 30.12 1020 10 16.0934 N/A
3:55 am 03:55 Clear 35 1.7 22 -5.7 58 58 W 6 9 30.09 1019 10 16.0934 N/A
4:15 am 04:15 Clear 36 2.4 21 -5.9 55 55 W 5 7 30.09 1019 10 16.0934 N/A
4:35 am 04:35 Clear 37 2.7 21 -6 53 53 W 6 9 30.09 1019 10 16.0934 N/A
4:55 am 04:55 Clear 38 3.3 22 -5.7 52 52 W 8 13 30.06 1018 10 16.0934 N/A
5:15 am 05:15 Clear 41 4.9 21 -6 46 46 WSW 9 15 30.03 1017 10 16.0934 N/A
5:35 am 05:35 Clear 42 5.7 21 -6 43 43 W 9 15 30.03 1017 10 16.0934 N/A
5:55 am 05:55 Clear 37 3 22 -5.7 53 53 W 6 9 30.06 1018 10 16.0934 N/A
6:15 am 06:15 Clear 38 3.2 21 -6 51 51 W 9 15 30.06 1018 10 16.0934 N/A
6:35 am 06:35 Clear 37 2.7 21 -5.9 54 54 NW 6 9 30.03 1017 10 16.0934 N/A
6:55 am 06:55 Clear 37 3 21 -6 52 52 W 8 13 30.03 1017 10 16.0934 N/A
7:15 am 07:15 Clear 35 1.9 20 -6.4 55 55 WSW 7 11 30.03 1017 10 16.0934 N/A
7:35 am 07:35 Sunny 35 1.8 20 -6.7 54 54 WSW 3 6 30.03 1017 10 16.0934 N/A
7:55 am 07:55 Sunny 35 1.7 21 -6.3 56 56 WSW 5 7 30 1016 10 16.0934 N/A
8:15 am 08:15 Sunny 38 3.4 23 -4.9 55 55 SW 3 6 29.97 1015 10 16.0934 N/A
8:35 am 08:35 Sunny 41 5.2 23 -4.9 48 48 SW 5 7 29.97 1015 10 16.0934 N/A
8:55 am 08:55 Sunny 44 6.8 24 -4.7 44 44 N N/A 29.94 1014 10 16.0934 N/A
9:15 am 09:15 Sunny 47 8.1 23 -5 39 39 WSW 5 7 29.94 1014 10 16.0934 N/A
9:35 am 09:35 Sunny 48 8.8 23 -5 38 38 W 8 13 29.88 1012 10 16.0934 N/A
9:55 am 09:55 Sunny 51 10.3 24 -4.3 36 36 WSW 7 11 29.88 1012 10 16.0934 N/A
10:15 am 10:15 Sunny 53 11.5 24 -4.3 33 33 WSW 7 11 29.85 1011 10 16.0934 N/A
10:35 am 10:35 Sunny 55 12.6 25 -3.8 32 32 W 8 13 29.85 1011 10 16.0934 N/A
10:55 am 10:55 Sunny 57 13.8 26 -3.6 30 30 W 7 11 29.83 1010 10 16.0934 N/A
11:15 am 11:15 Sunny 59 15.1 26 -3.1 29 29 WSW 5 7 29.8 1009 10 16.0934 N/A
11:35 am 11:35 Sunny 62 16.5 26 -3.3 26 26 WSW 5 7 29.8 1009 10 16.0934 N/A
11:55 am 11:55 Sunny 64 17.9 25 -3.7 23 23 WSW 6 9 29.77 1008 10 16.0934 N/A
12:15 pm 12:15 Sunny 66 18.8 26 -3.4 22 22 WSW 7 11 29.74 1007 10 16.0934 N/A
12:35 pm 12:35 Sunny 69 20.3 24 -4.4 19 19 SW 8 13 29.71 1006 10 16.0934 N/A
12:55 pm 12:55 Sunny 70 21 22 -5.4 16 16 SW 12 19 29.71 1006 10 16.0934 N/A
1:15 pm 13:15 Sunny 71 21.5 22 -5.8 16 16 SW 10 17 29.65 1004 10 16.0934 N/A
1:35 pm 13:35 Sunny 71 21.8 20 -6.7 14 14 WSW 7 11 29.65 1004 10 16.0934 N/A
1:55 pm 13:55 Sunny 72 22.2 22 -5.7 15 15 SW 14 22 29.62 1003 10 16.0934 N/A
2:15 pm 14:15 Sunny 72 22.3 24 -4.6 16 16 SSW 14 22 29.62 1003 10 16.0934 N/A
2:35 pm 14:35 Sunny 72 22.4 24 -4.7 16 16 SSW 12 19 29.59 1002 10 16.0934 N/A
2:55 pm 14:55 Sunny 72 22.4 23 -5.1 15 15 SSW 16 26 29.59 1002 10 16.0934 N/A
3:15 pm 15:15 Sunny 73 22.9 24 -4.6 16 16 S 17 28 29.59 1002 10 16.0934 N/A
3:35 pm 15:35 Sunny 73 22.8 22 -5.6 15 15 S 14 22 29.59 1002 10 16.0934 N/A
3:55 pm 15:55 Sunny 74 23.1 21 -6.3 14 14 SSW 17 28 29.59 1002 10 16.0934 N/A
4:15 pm 16:15 Sunny 74 23.2 20 -6.6 13 13 SSW 16 26 29.59 1002 10 16.0934 N/A
4:35 pm 16:35 Sunny 73 23 21 -5.9 14 14 SSW 14 22 29.59 1002 10 16.0934 N/A
4:55 pm 16:55 Sunny 73 23 21 -6.2 14 14 SSW 14 22 29.59 1002 10 16.0934 N/A
5:15 pm 17:15 Sunny 73 22.5 21 -6.1 14 14 SSW 15 24 29.56 1001 10 16.0934 N/A
5:35 pm 17:35 Sunny 69 20.8 22 -5.3 17 17 SSW 13 20 29.56 1001 10 16.0934 N/A
5:55 pm 17:55 Sunny 64 17.6 26 -3.6 23 23 S 10 17 29.59 1002 10 16.0934 N/A
6:15 pm 18:15 Sunny 62 16.7 26 -3.5 25 25 S 9 15 29.59 1002 10 16.0934 N/A
6:35 pm 18:35 Clear 59 14.9 26 -3.2 29 29 S 8 13 29.62 1003 10 16.0934 N/A
6:55 pm 18:55 Clear 57 14 27 -2.6 32 32 SSW 9 15 29.59 1002 10 16.0934 N/A
7:15 pm 19:15 Clear 56 13.4 28 -2.4 34 34 SSW 8 13 29.59 1002 10 16.0934 N/A
7:35 pm 19:35 Clear 58 14.4 28 -2.5 31 31 SSW 10 17 29.59 1002 10 16.0934 N/A
7:55 pm 19:55 Clear 57 13.8 27 -2.6 32 32 SSW 10 17 29.59 1002 10 16.0934 N/A
8:15 pm 20:15 Clear 56 13.1 27 -2.7 34 34 SSW 12 19 29.59 1002 10 16.0934 N/A
8:35 pm 20:35 Clear 56 13.6 27 -2.7 32 32 S 8 13 29.59 1002 10 16.0934 N/A
8:55 pm 20:55 Clear 59 15 27 -2.9 29 29 SSW 10 17 29.56 1001 10 16.0934 N/A
9:15 pm 21:15 Clear 59 15 27 -3 29 29 SSW 10 17 29.56 1001 10 16.0934 N/A
9:35 pm 21:35 Clear 59 15.2 27 -2.9 29 29 SW 8 13 29.56 1001 10 16.0934 N/A
9:55 pm 21:55 Clear 61 16.2 26 -3.1 27 27 SSW 10 17 29.53 1000 10 16.0934 N/A
10:15 pm 22:15 Clear 56 13.4 28 -2 35 35 NW 18 30 29.59 1002 10 16.0934 N/A
10:35 pm 22:35 Clear 56 13.6 27 -2.8 32 32 WNW 7 11 29.59 1002 10 16.0934 N/A
10:55 pm 22:55 Clear 53 11.7 27 -2.6 37 37 W 3 6 29.62 1003 10 16.0934 N/A
11:15 pm 23:15 Clear 50 9.8 29 -1.7 45 45 NW 7 11 29.62 1003 10 16.0934 N/A
11:35 pm 23:35 Clear 49 9.6 28 -2.5 43 43 WNW 8 13 29.62 1003 10 16.0934 N/A
11:55 pm 23:55 Clear 46 7.9 28 -2.2 49 49 WNW 12 19 29.65 1004 10 16.0934 N/A

Powered by AerisWeather